This is the latest recevied weather packets stored in our database for station/object W9WRP. If no packets are shown the sender has not sent any weather packets the latest 1 day(s).
| Time | Temp. | Humidity | Pressure | Rain* | Wind** | Luminosity | Snow |
|---|---|---|---|---|---|---|---|
| 1778074061 | 13.33° C | 42% | 1017.6 hPa | 0 mm | - | 24 W/m² | - |
| 1778071942 | 12.22° C | 44% | 1016.9 hPa | 0 mm | - | 8 W/m² | - |
| 1778071640 | 12.22° C | 44% | 1016.8 hPa | 0 mm | - | 6 W/m² | - |
| 1778070430 | 12.22° C | 44% | 1016.7 hPa | 0 mm | - | 1 W/m² | - |
| 1778069825 | 12.78° C | 43% | 1016.5 hPa | 0 mm | - | 0 W/m² | - |
| 1778069219 | 12.78° C | 43% | 1016.5 hPa | 0 mm | - | 0 W/m² | - |
| 1778068009 | 13.89° C | 41% | 1016.5 hPa | 0 mm | - | 0 W/m² | - |
| 1778066194 | 14.44° C | 40% | 1016.1 hPa | 0 mm | - | 0 W/m² | - |
| 1778064982 | 14.44° C | 40% | 1016.3 hPa | 0 mm | - | 0 W/m² | - |
| 1778063772 | 13.89° C | 40% | 1016.2 hPa | 0 mm | - | 0 W/m² | - |
| 1778063167 | 13.89° C | 40% | 1016.2 hPa | 0 mm | - | 0 W/m² | - |
| 1778062561 | 13.89° C | 39% | 1016.1 hPa | 0 mm | - | 0 W/m² | - |
| 1778061956 | 14.44° C | 39% | 1016.3 hPa | 0 mm | - | 0 W/m² | - |
| 1778061352 | 15° C | 38% | 1016.1 hPa | 0 mm | - | 0 W/m² | - |
| 1778061048 | 15° C | 38% | 1016 hPa | 0 mm | - | 0 W/m² | - |
| 1778060746 | 15° C | 38% | 1016.1 hPa | 0 mm | - | 0 W/m² | - |
| 1778060444 | 15° C | 38% | 1016 hPa | 0 mm | - | 0 W/m² | - |
| 1778060142 | 15° C | 38% | 1015.9 hPa | 0 mm | - | 0 W/m² | - |
| 1778059839 | 15° C | 38% | 1016.1 hPa | 0 mm | - | 0 W/m² | - |
| 1778059537 | 15° C | 37% | 1016.1 hPa | 0 mm | - | 0 W/m² | - |
| 1778059233 | 15° C | 37% | 1015.8 hPa | 0 mm | - | 0 W/m² | - |
| 1778058932 | 15° C | 37% | 1016 hPa | 0 mm | - | 0 W/m² | - |
| 1778057416 | 15.56° C | 36% | 1016 hPa | 0 mm | - | 0 W/m² | - |
| 1778057113 | 15.56° C | 36% | 1016.1 hPa | 0 mm | - | 0 W/m² | - |
| 1778054386 | 15.56° C | 37% | 1016.1 hPa | 0 mm | - | 0 W/m² | - |
* Rain latest hour (hover to see other rain measurements)
** Current wind speed in m/s (hover to see current wind gust speed)